Погода в Зеленоборском

Россия / Мурманская область     66°50′45″N   32°22′03″E
темп.,
°C
ветер,
м/с
пор.,
м/с
влажн.,
%
обл.,
%
осадки,
мм/ч
давл.,
гПа
погр.,
м
27 февраля, сб
сб2700:00−6сз239311 0.0 100421
03:00−5сз349029 0.0 100865
06:00−4ссз458852 0.0 101093
09:00−6зсз348826 0.0 101336
12:00−3зсз48890 0.0 1013260
15:00−3з34920 0.0 1014150
18:00−5з34920 0.0 101343
21:00−8з22920 0.0 101221
28 февраля, вс
вс2800:00−7юз128999 0.0 101021
03:00−5ююз2286100 0.0 100923
06:00−5юз2397100 0.1 100871
09:00−6з2394100 0.1 100837
12:00−5з229477 0.0 100776
15:00−2з359447 0.0 1009138
18:00−3з33933 0.0 100841
21:00−3з349225 0.0 100849
1 марта, пн
пн100:00+1зюз499568 0.0 1006202
03:00+1зюз5119284 0.0 1004314
06:00+1зюз61389100 0.0 1001354
09:00+1з51183100 0.0 1001321
12:00+1з5118667 0.0 1000415
15:00+1з6118233 0.0 1000418
18:00−1з5108433 0.0 998279
21:00−3з499144 0.0 997225
2 марта, вт
вт200:00−3з5109079 0.0 997239
03:00−3з6138578 0.0 995373
06:00−1з7149487 0.1 995633
09:00−2ссз7168260 0.1 1000575
12:00−2сз6118321 0.0 1004379
15:00−3сз6137525 0.0 1007694
18:00−5зсз478115 0.0 1008137
21:00−6сз5118541 0.0 1010297
3 марта, ср
ср300:00−7сз59840 0.0 1012143
03:00−9зсз49863 0.0 1013151
06:00−9з488819 0.0 1013168
09:00−8зсз478829 0.0 1012150
12:00−5з488792 0.0 1010285
15:00−3зюз488662 0.0 1006283
18:00−3юз3488100 0.0 100284
21:00−3ю3597100 1.5 997186